Reno, NV

11:16 AM PDT on August 23, 2019 (GMT -0700)
Reno-Tahoe International

Weather History for KRNO - July, 2019

Change the Weather History Date:

Tuesday, July 16, 2019

  Actual Average Record
Temperature  
Mean Temperature 76 °F 76 °F  
Max Temperature 91 °F 93 °F 104 °F (2005)
Min Temperature 61 °F 58 °F 38 °F (1966)
Degree Days  
Heating Degree Days 0 0  
Month to date heating degree days 0 0  
Since 1 June heating degree days 15 56  
Since 1 July heating degree days 0 0  
Cooling Degree Days 11 11  
Month to date cooling degree days 158 149  
Year to date cooling degree days 374 322  
Since 1 June cooling degree days 360 285  
Growing Degree Days 26 (Base 50)    
Moisture  
Dew Point 41 °F    
Average Humidity 32    
Maximum Humidity 46    
Minimum Humidity 17    
Precipitation  
Precipitation 0.00 in 0.00 in 0.34 in (2010)
Month to date precipitation 0.00 0.08  
Year to date precipitation 8.51 4.36  
Snow  
Snow 0.00 in 0.00 in 0.00 in ()
Month to date snowfall 0.0 0.0  
Since 1 June snowfall 0.0 T  
Since 1 July snowfall 0.0 0.0  
Snow Depth 0.00 in    
Sea Level Pressure  
Sea Level Pressure 29.84 in    
Wind  
Wind Speed 6 mph (NW)    
Max Wind Speed 22 mph    
Max Gust Speed 28 mph    
Visibility 10 miles    
Events      
T = Trace of Precipitation, MM = Missing Value Source: NWS Daily Summary

Daily Weather History Graph

Daily Weather History Graph

Search for Another Location

Airport or City:

Astronomy

Jul. 16, 2019 Rise Set
Actual Time 5:45 AM PDT 8:24 PM PDT
Civil Twilight 5:13 AM PDT 8:56 PM PDT
Nautical Twilight 4:34 AM PDT 9:35 PM PDT
Astronomical Twilight 3:49 AM PDT 10:19 PM PDT
Moon 8:34 PM PDT (7/16) 5:27 AM PDT (7/16)
Length of Visible Light 15h 42m
Length of Day
14h 39m
Full, 100% of the Moon is Illuminated
Jul 16
Full
Jul 16
Full
Jul 24
Last Quarter
Jul 31
New
Aug 7
First Quarter

Hourly Weather History & Observations

Time (PDT) Temp. Dew Point Humidity Pressure Visibility Wind Dir Wind Speed Gust Speed Precip Events Conditions
12:55 AM 70.0 °F 42.1 °F 36% 29.90 in 10.0 mi NNW 3.5 mph - N/A   Partly Cloudy
1:55 AM 68.0 °F 42.1 °F 39% 29.89 in 10.0 mi Calm Calm - N/A   Partly Cloudy
2:55 AM 66.0 °F 43.0 °F 43% 29.88 in 10.0 mi Calm Calm - N/A   Partly Cloudy
3:55 AM 63.0 °F 39.9 °F 43% 29.88 in 10.0 mi West 4.6 mph - N/A   Partly Cloudy
4:55 AM 62.1 °F 39.0 °F 43% 29.88 in 10.0 mi Calm Calm - N/A   Partly Cloudy
5:55 AM 61.0 °F 39.0 °F 44% 29.90 in 10.0 mi West 3.5 mph - N/A   Partly Cloudy
6:55 AM 62.1 °F 39.0 °F 43% 29.90 in 10.0 mi Calm Calm - N/A   Partly Cloudy
7:55 AM 64.9 °F 39.9 °F 40% 29.89 in 10.0 mi ESE 3.5 mph - N/A   Scattered Clouds
8:55 AM 69.1 °F 41.0 °F 36% 29.89 in 10.0 mi Calm Calm - N/A   Mostly Cloudy
9:55 AM 73.9 °F 43.0 °F 33% 29.87 in 10.0 mi NNE 3.5 mph - N/A   Mostly Cloudy
10:55 AM 77.0 °F 39.0 °F 25% 29.86 in 10.0 mi Calm Calm - N/A   Mostly Cloudy
11:55 AM 80.1 °F 35.1 °F 20% 29.85 in 10.0 mi Variable 3.5 mph - N/A   Mostly Cloudy
12:55 PM 81.0 °F 36.0 °F 20% 29.83 in 10.0 mi Calm Calm - N/A   Mostly Cloudy
1:55 PM 82.0 °F 36.0 °F 19% 29.82 in 10.0 mi SE 3.5 mph - N/A   Scattered Clouds
2:55 PM 87.1 °F 37.9 °F 18% 29.79 in 10.0 mi ENE 8.1 mph - N/A   Partly Cloudy
3:55 PM 86.0 °F 37.9 °F 18% 29.78 in 10.0 mi Variable 4.6 mph - N/A   Partly Cloudy
4:55 PM 89.1 °F 39.0 °F 17% 29.75 in 10.0 mi West 16.1 mph 25.3 mph N/A   Partly Cloudy
5:55 PM 86.0 °F 41.0 °F 20% 29.77 in 10.0 mi WNW 19.6 mph 25.3 mph N/A   Partly Cloudy
6:55 PM 82.9 °F 41.0 °F 23% 29.78 in 10.0 mi West 17.3 mph 26.5 mph N/A   Partly Cloudy
7:55 PM 81.0 °F 44.1 °F 27% 29.79 in 10.0 mi WNW 17.3 mph 25.3 mph N/A   Clear
8:55 PM 78.1 °F 45.0 °F 31% 29.81 in 10.0 mi NNW 17.3 mph 25.3 mph N/A   Clear
9:55 PM 75.0 °F 46.0 °F 36% 29.83 in 10.0 mi WNW 12.7 mph 23.0 mph N/A   Clear
10:55 PM 73.0 °F 46.0 °F 38% 29.84 in 10.0 mi NW 8.1 mph - N/A   Partly Cloudy
11:55 PM 72.0 °F 45.0 °F 38% 29.85 in 10.0 mi NE 5.8 mph - N/A   Partly Cloudy